Lid_Strength_Index
4 5 5 5 5 6 6 6 6 6 5 5 4 3 5 4 5 6 3 -0 3 6 5 5 3 6 6 7 10 7 8 7 8 11 11 12 12 11 12 11 12 13 15 15 14 16 18 7 7 12 9 8 7 6
4 5 6 6 6 6 6 6 6 6 5 5 4 4 5 5 5 6 3 0 0 4 5 2 2 1 3 3 6 6 8 8 7 10 10 10 12 11 11 14 9 14 11 13 13 13 8 7 7 7 7 7 6 6
4 5 6 6 6 6 6 6 6 6 5 4 4 4 5 5 5 6 3 1 2 4 4 4 4 1 1 1 1 7 6 5 7 6 8 9 11 9 13 11 11 10 8 11 11 10 8 7 7 6 6 5 5 6
4 5 5 6 6 6 6 6 6 6 5 4 4 4 5 5 5 6 2 1 2 4 7 5 1 2 1 1 2 2 4 4 4 5 8 9 11 8 11 9 10 9 8 9 10 9 7 6 6 6 6 4 4 4
5 5 5 5 6 6 6 7 6 6 5 4 4 3 5 5 5 5 3 0 0 4 7 6 3 1 1 2 2 2 4 5 6 8 8 10 8 8 8 9 10 8 9 11 12 7 8 7 6 5 5 4 4 4
5 4 5 5 6 6 7 6 6 5 5 4 4 4 5 5 5 2 4 1 -0 1 5 8 3 3 2 1 2 3 4 5 5 7 8 7 6 8 11 11 8 6 5 6 8 5 5 5 5 4 5 4 4 4
4 5 5 6 7 7 6 5 5 5 4 4 4 4 4 5 3 3 4 2 4 0 5 7 7 3 2 3 4 4 4 5 5 7 7 7 7 7 9 11 7 6 5 5 4 5 6 5 6 4 3 3 3 3
5 5 6 6 6 6 5 5 5 5 5 4 4 4 4 4 3 2 0 2 1 3 4 8 8 6 2 6 6 4 6 5 6 6 6 7 7 8 11 8 6 5 4 4 4 4 5 4 4 4 4 4 4 4
5 5 5 5 6 5 5 5 5 5 5 5 4 4 1 1 3 2 2 2 -0 3 7 7 9 10 3 5 5 5 5 9 5 8 8 7 9 12 9 7 7 6 6 5 4 4 5 5 5 4 4 5 5 5
5 5 5 6 6 6 5 5 5 5 5 5 2 2 4 2 2 0 2 3 4 4 4 7 5 8 5 6 7 7 6 8 10 9 6 9 10 7 6 5 5 4 4 4 6 6 5 5 5 4 4 5 4 4
5 5 5 6 6 5 5 5 5 5 4 1 3 4 1 3 1 3 6 6 6 7 6 6 6 7 4 8 8 6 8 8 11 10 10 11 12 8 5 5 4 4 4 4 4 4 4 5 4 4 4 3 3 3
5 5 6 6 5 5 5 5 5 1 1 3 4 2 1 3 5 6 7 5 6 8 6 6 6 5 5 4 7 7 8 8 11 7 11 13 9 6 5 5 4 4 3 4 3 3 4 3 3 3 4 4 4 3
5 6 6 6 5 5 5 5 4 4 5 3 3 3 5 5 9 8 9 9 9 6 6 6 7 6 5 5 7 7 9 10 7 10 12 10 7 6 5 4 4 3 3 3 3 3 3 3 2 3 3 3 3 4
6 6 6 6 5 5 4 4 4 3 1 4 5 11 7 8 7 7 7 7 5 5 5 5 6 6 6 7 7 8 8 8 11 13 13 9 7 6 4 4 4 4 4 3 3 3 3 3 3 3 3 2 3 4
7 7 6 4 4 5 5 4 4 1 3 4 4 10 7 5 5 4 4 5 4 4 5 6 6 6 7 7 7 8 9 12 11 12 9 7 6 5 5 4 4 4 4 4 3 3 3 3 3 3 3 3 3 2
7 6 3 5 5 5 5 2 0 0 2 3 3 6 5 6 6 5 5 5 4 4 4 5 6 7 8 8 9 10 11 12 10 8 6 5 5 5 5 4 4 3 3 3 3 3 3 3 3 3 3 3 2 2
6 2 5 5 5 5 4 -0 1 2 3 3 5 4 5 5 5 5 5 5 3 5 7 7 8 8 7 9 10 9 10 8 7 6 5 5 5 5 4 4 3 3 3 3 3 3 3 3 2 3 4 3 3 2
3 2 4 5 5 3 0 1 2 3 5 4 6 5 4 4 5 4 4 3 4 5 6 7 5 7 10 10 9 7 6 5 5 5 5 4 4 3 3 3 3 3 3 3 3 3 3 4 4 4 4 3 3 3
5 5 5 6 5 3 3 2 2 6 5 4 4 3 3 4 3 3 3 3 3 3 5 6 7 8 8 6 7 6 5 5 5 5 4 3 3 3 3 3 3 3 3 3 3 4 3 3 3 3 4 4 4 3
7 6 5 5 4 2 3 3 1 4 5 4 3 4 4 4 3 3 3 3 3 4 6 6 7 6 6 5 4 4 4 4 4 5 5 4 3 3 3 3 3 3 3 3 3 6 5 5 3 4 4 5 5 5
3 1 4 1 1 2 2 4 3 4 4 5 4 3 4 3 4 4 4 3 4 5 7 5 5 4 3 3 3 3 3 3 4 4 5 5 3 3 3 2 3 4 5 5 5 5 6 5 5 5 6 5 5 4
-0 3 0 -0 2 2 3 2 3 3 4 4 4 4 5 5 5 5 3 5 5 5 4 4 4 4 4 3 3 3 2 2 2 3 4 4 4 3 4 5 5 5 5 5 5 5 5 5 5 4 5 5 5 4
3 3 2 2 4 7 6 2 4 3 6 5 4 5 5 5 4 3 5 4 4 3 3 3 2 2 3 2 2 2 2 2 3 3 3 3 4 4 5 5 5 6 6 5 5 5 5 7 6 5 5 5 6 6
5 3 4 4 4 8 3 4 3 4 4 5 5 6 5 5 4 5 6 5 4 3 3 3 3 3 3 3 3 3 2 2 4 4 4 5 5 5 5 5 5 5 6 6 6 5 5 6 7 6 7 7 7 7
7 7 6 12 4 5 6 6 5 6 7 6 6 6 6 4 6 6 7 6 5 4 3 3 3 4 4 4 4 4 4 4 5 5 5 5 5 5 5 5 5 6 6 6 7 7 7 7 7 7 7 8 8 8
12 5 8 5 5 6 6 7 7 7 6 6 6 4 5 6 6 7 7 5 4 4 4 4 5 5 5 5 5 6 5 4 5 6 6 5 6 6 7 7 8 7 6 7 7 7 7 7 7 7 7 7 10 8
10 6 4 3 4 4 5 4 4 5 6 7 6 6 6 7 7 7 4 3 3 2 2 3 4 5 5 5 5 4 4 4 5 5 5 6 6 7 7 8 8 8 7 7 7 8 8 8 8 8 8 7 7 7
5 5 6 5 5 4 6 5 6 6 5 5 5 6 7 7 7 4 3 2 2 2 3 3 4 4 5 5 5 5 5 5 4 5 5 5 6 6 6 6 6 11 7 7 7 7 7 7 8 8 7 7 6 5
6 4 5 7 6 5 5 5 5 4 3 4 6 6 5 3 3 3 2 2 2 3 4 5 5 4 4 5 5 6 6 6 7 9 9 9 8 8 6 6 6 6 6 7 10 10 8 8 7 6 5 5 6 5
6 4 6 6 6 6 4 3 4 3 2 2 2 3 3 3 2 2 3 4 4 5 5 5 5 6 7 7 7 7 6 7 7 8 9 9 9 7 7 7 7 7 7 7 7 7 9 6 6 5 6 7 7 7
4 4 5 5 5 4 3 2 2 2 2 3 3 4 4 4 4 5 6 3 5 5 6 7 7 7 7 8 8 8 9 7 7 6 7 7 7 8 8 7 7 7 7 7 7 6 6 7 7 7 6 7 6 7
4 5 5 6 5 3 3 3 3 4 4 5 5 4 4 5 7 8 7 6 8 8 11 9 9 9 8 8 8 8 12 7 7 7 7 7 8 8 8 7 7 7 7 7 7 7 7 7 7 6 7 7 7 7
4 4 4 5 5 5 4 5 5 6 5 6 5 5 5 7 9 8 8 8 9 10 10 10 9 9 8 8 8 8 10 8 9 12 12 12 12 10 8 8 7 6 6 7 6 6 6 6 7 7 7 7 7 7